Hourly Weather Roundup
Issued by NWS Central Illinois

Home | Current Version | Previous Version | Text Only | Print | Product List | Glossary On
Versions: 1 2 3 4 5 6 7 8 9 10 11 12 13 14 15 16 17 18 19 20 21 22 23 24 25 26 27 28 29 30 31 32 33 34 35 36 37 38 39 40 41 42 43 44 45 46 47 48 49 50
000
NZUS43 KILX 300910
HWRILX

AREA WEATHER ROUNDUP
NATIONAL WEATHER SERVICE, LINCOLN IL
300 AM CST FRI JAN 30 2015


CITY           SKY/WX    TMP DP  RH WIND       PRES   REMARKS
BLOOMINGTON    CLEAR     27  21  77 NW12      30.42R WCI  17
CHAMPAIGN      CLOUDY    31  23  72 NW20      30.38R WCI  19
DECATUR        CLOUDY    31  21  66 NW13G24   30.42R WCI  21
FLORA          CLOUDY    33  26  75 NW12      30.43R WCI  25
GALESBURG      CLEAR     24  19  80 NW10      30.47S WCI  13
JACKSONVILLE   CLOUDY    31  22  67 NW10      30.48R WCI  22
LACON          CLEAR     26  18  73 NW7       30.44R WCI  18
LAWRENCEVILLE  CLOUDY    34  24  67 NW15      30.39R WCI  24
LITCHFIELD     CLOUDY    30  20  66 N16       30.45S WCI  19
$$


CITY           SKY/WX    TMP DP  RH WIND       PRES   REMARKS
LINCOLN        CLOUDY    31  21  67 NW10G18   30.46R WCI  22
MACOMB         CLEAR     25  19  77 NW14      30.51S WCI  14
MATTOON        CLOUDY    31  22  69 NW18      30.39R WCI  19
MT CARMEL AP   CLOUDY    36  27  69 NW15G21   30.39S WCI  26
OLNEY-NOBLE AP CLOUDY    32  27  80 NW7       30.42R WCI  26
PARIS          CLOUDY    32  28  84 NW18      30.37R WCI  20
PEORIA         CLEAR     28  17  63 NW7       30.45R WCI  21
PONTIAC        CLEAR     29  22  76 NW15      30.42R WCI  17
RANTOUL        CLOUDY    32  23  69 NW16G26   30.38R WCI  21
ROBINSON       CLOUDY    34  26  71 NW13      30.40R WCI  25
SPRINGFIELD    CLOUDY    30  19  63 NW12      30.46R WCI  20
TAYLORVILLE    CLOUDY    30  23  74 N18G24    30.45S WCI  18
$$

...REGIONAL REPORTS...


CITY           SKY/WX    TMP DP  RH WIND       PRES   REMARKS
CHICAGO O`HARE MOCLDY    25   8  48 N15       30.39R WCI  13
KANKAKEE       PTCLDY    28  21  74 N10       30.39R WCI  19
MOLINE         CLEAR     23  15  71 NW7       30.48R WCI  15
MOUNT VERNON   NOT AVBL
PITTSFIELD     CLOUDY    29  21  71 N14       30.49F WCI  18
QUINCY         CLOUDY    26  18  71 N17       30.48F WCI  13
ROCKFORD       PTCLDY    24  16  71 NE8       30.44R WCI  15
$$


CITY           SKY/WX    TMP DP  RH WIND       PRES   REMARKS
BURLINGTON     CLEAR     25  17  72 N12       30.49F WCI  14
CEDAR RAPIDS   CLEAR     20  14  77 N10       30.49S WCI   9
DES MOINES     PTCLDY    21  14  74 NE6       30.54S WCI  13
KIRKSVILLE     CLEAR     23  20  88 N7        30.51R WCI  15
OTTUMWA        PTCLDY    21  15  78 N15       30.52R WCI   8
ST LOUIS       MOCLDY    31  20  63 NW16      30.48R WCI  20
$$


CITY           SKY/WX    TMP DP  RH WIND       PRES   REMARKS
TERRE HAUTE    CLOUDY    33  26  75 NW14      30.35R WCI  23
EVANSVILLE     CLOUDY    36  24  62 NW12G18   30.40R WCI  28
INDIANAPOLIS   FLURRIES  30  23  75 NW13      30.29R WCI  20
LAFAYETTE      FLURRIES  30  25  81 N9        30.34R WCI  22
MADISON        CLEAR     18   8  65 NW8       30.43R WCI   8
MILWAUKEE      PTCLDY    23  10  57 N16       30.40R WCI  10
$$




USA.gov is the U.S. government's official web portal to all federal, state and local government web resources and services.